Hourly Data Report for July 01, 2021

SECHELT AUT
BRITISH COLUMBIA
Current Station Operator: ECCC - MSC

49°27'28.788" N
123°42'54.945" W
86.20 m
1047172
71638
VOU

Download Data

Hourly Data (July 2021)
Hourly Data Report for July 1, 2021
TIME
LST
Temp Definition
°C
Dew Point Definition
°C
Rel Hum Definition
%
Precip. Amount Definition
mm

Wind Dir Definition
10's deg

Wind Spd Definition
km/h
Visibility Definition
km
Stn Press Definition
kPa
Hmdx Definition


Wind Chill Definition


Weather Definition


00:00 18.5 16.3 87 0.0 16 7   100.27     LegendNANA
01:00 18.6 16.2 86 0.0 14 7   100.31     LegendNANA
02:00 18.7 15.4 81 0.0 14 9   100.32     LegendNANA
03:00 18.6 15.4 81 0.0 13 7   100.34     LegendNANA
04:00 17.5 15.3 87 0.0 15 6   100.35     LegendNANA
05:00 17.3 15.2 88 0.0 16 4   100.41     LegendNANA
06:00 17.2 15.1 87 0.0 12 11   100.42     LegendNANA
07:00 17.2 14.9 87 0.0 15 7   100.45     LegendNANA
08:00 17.4 14.8 85 0.0 14 4   100.48     LegendNANA
09:00 18.4 15.4 83 0.0 16 3   100.50     LegendNANA
10:00 18.9 15.4 80 0.0 16 5   100.51     LegendNANA
11:00 18.4 15.2 82 0.0 15 6   100.56     LegendNANA
12:00 18.6 14.2 75 0.0 15 10   100.56     LegendNANA
13:00 21.7 13.7 61 0.0 14 13   100.54 25   LegendNANA
14:00 21.5 14.6 65 0.0 15 6   100.57 25   LegendNANA
15:00 22.4 15.2 64 0.0 16 8   100.52 26   LegendNANA
16:00 22.5 15.1 63 0.0 15 9   100.49 27   LegendNANA
17:00 21.2 13.9 63 0.0 15 7   100.45 25   LegendNANA
18:00 22.5 14.3 60 0.0 16 4   100.42 26   LegendNANA
19:00 21.3 14.1 63 0.0 18 3   100.43 25   LegendNANA
20:00 19.5 14.9 75 0.0 10 1   100.42     LegendNANA
21:00 17.8 14.5 81 0.0 36 2   100.46     LegendNANA
22:00 16.5 14.4 88 0.0 6 2   100.46     LegendNANA
23:00 15.5 13.8 90 0.0 35 2   100.46     LegendNANA

Notes on Data Quality.

Legend

  • E = Estimated
  • M = Missing
  • NA = Not Available*
  • [empty] = Indicates an unobserved value
Date modified: